Total_Precipitation_Accumulation
2.82 2.77 2.68 2.82 2.57 2.64 3.01 3.29 3.09 3.15 3.23 3.04 2.76 2.69 2.73 2.59 2.53 2.47 2.61 2.71 2.51 2.53 2.80 2.81 2.72 2.52 2.42 2.20 2.03 1.97 1.91 1.80 1.56 1.24 1.08 1.02 0.96 0.83 0.76 0.73 0.65 0.59 0.53
2.99 2.94 2.78 2.81 2.49 2.41 2.70 3.00 3.01 3.19 3.18 3.14 2.77 2.54 2.53 2.70 2.67 2.47 2.54 2.75 2.66 2.35 2.43 2.74 2.97 2.99 2.81 2.64 2.43 2.22 2.11 2.03 1.73 1.32 1.10 1.05 1.01 0.92 0.91 0.95 0.85 0.69 0.56
3.15 3.07 2.95 2.76 2.63 2.66 2.76 2.79 2.90 3.30 3.12 2.97 2.80 2.73 2.68 2.71 2.58 2.46 2.46 2.60 2.37 2.22 2.18 2.31 2.66 2.98 3.24 3.24 3.01 2.76 2.43 2.16 1.81 1.47 1.23 1.07 0.95 0.89 0.93 0.97 0.97 0.82 0.65
3.01 3.16 2.85 2.58 2.74 2.89 3.00 3.00 3.00 3.21 3.27 3.36 3.27 3.08 2.85 2.73 2.21 2.12 2.15 2.21 2.36 2.02 2.13 2.34 2.49 2.65 3.17 3.59 3.74 3.67 3.15 2.59 2.14 1.71 1.44 1.23 1.12 1.06 0.96 0.92 0.92 0.91 0.79
2.33 2.43 2.30 2.25 2.33 2.50 2.48 2.34 2.71 2.97 3.15 3.34 3.09 2.94 2.59 2.45 2.22 2.06 2.08 1.86 1.98 2.04 2.09 2.17 2.41 2.46 2.94 3.72 4.43 4.67 4.28 3.55 2.83 2.23 1.92 1.74 1.57 1.34 1.14 1.04 1.01 1.02 0.90
1.97 2.05 1.87 1.84 2.04 2.29 2.38 2.51 2.74 2.70 2.62 2.74 2.43 2.37 2.28 2.06 2.07 2.05 1.88 1.79 1.74 1.75 1.94 2.14 2.36 2.07 2.58 3.44 4.16 4.56 4.70 4.33 3.60 2.98 2.66 2.39 2.22 1.85 1.38 1.18 1.11 1.06 0.97
1.99 2.19 1.92 2.09 2.11 2.23 2.29 2.26 2.38 2.34 2.10 2.22 2.59 2.48 2.12 1.93 1.94 1.88 1.80 1.82 1.62 1.69 1.95 2.16 2.37 2.45 2.24 2.26 2.76 3.35 4.18 4.74 4.39 3.74 3.35 3.04 2.84 2.41 1.84 1.56 1.32 1.18 1.08
1.90 1.92 2.03 1.81 1.85 2.02 1.99 2.02 2.32 2.28 1.99 2.06 2.44 2.64 2.42 2.40 2.12 1.61 1.64 1.75 1.70 1.80 1.94 2.02 2.35 2.62 2.52 2.67 2.13 2.25 3.26 4.15 4.64 4.56 4.07 3.43 2.98 2.55 2.15 1.95 1.68 1.45 1.31
1.59 1.66 1.70 1.76 1.88 1.81 1.91 1.99 2.07 2.21 2.11 1.92 1.98 2.50 2.46 2.31 2.10 1.85 1.62 1.60 1.72 1.95 2.01 2.13 2.16 2.28 2.37 2.69 2.67 2.33 2.58 2.86 3.89 4.70 4.58 3.80 2.98 2.41 2.19 2.25 2.15 1.80 1.61
1.54 1.42 1.48 1.57 1.73 1.74 1.98 1.75 1.82 2.05 2.12 1.88 1.90 2.02 2.05 2.11 2.19 1.98 1.68 1.51 1.52 1.63 1.83 1.88 2.06 2.22 2.27 2.48 2.72 2.39 2.07 2.06 2.71 3.64 4.12 4.04 3.39 2.64 2.30 2.43 2.74 2.64 2.20
1.50 1.36 1.41 1.54 1.66 1.71 1.78 1.79 2.03 1.99 1.90 1.88 1.89 1.95 2.01 2.02 1.92 1.97 1.90 1.64 1.49 1.36 1.52 1.78 2.01 2.21 2.17 2.30 2.64 2.44 2.28 2.14 2.01 2.23 2.78 3.23 3.32 3.08 2.79 2.86 3.37 3.76 3.60
1.59 1.57 1.49 1.59 1.60 1.63 1.66 1.71 1.87 1.90 1.91 1.96 1.85 1.79 1.95 2.04 1.98 2.05 1.94 1.70 1.54 1.31 1.33 1.54 1.91 2.24 2.33 2.32 2.08 2.04 2.10 2.10 1.94 1.81 1.88 2.15 2.52 2.78 2.98 3.30 3.78 4.32 4.65
1.53 1.67 1.64 1.66 1.66 1.67 1.59 1.68 1.76 1.74 1.83 1.93 1.86 1.74 1.74 1.73 1.85 1.97 1.99 1.73 1.60 1.40 1.53 1.56 1.63 1.81 1.93 2.06 2.08 2.02 1.79 1.82 1.62 1.53 1.57 1.68 1.92 2.22 2.46 2.68 3.12 3.63 4.06
1.39 1.54 1.67 1.68 1.61 1.53 1.51 1.83 1.70 1.64 1.76 1.81 1.74 2.00 1.92 1.73 1.87 1.98 2.05 2.09 1.90 1.78 1.89 1.76 1.56 1.58 1.70 1.83 1.95 1.87 1.53 1.56 1.43 1.33 1.24 1.19 1.23 1.36 1.53 1.71 1.97 2.28 2.58
1.43 1.50 1.48 1.63 1.68 1.56 1.58 1.76 1.72 1.69 1.75 1.71 1.81 2.03 2.01 1.91 1.92 1.96 2.14 2.37 2.49 2.28 2.05 1.85 1.65 1.50 1.60 1.73 1.78 1.54 1.46 1.61 1.45 1.23 1.14 1.11 1.10 1.12 1.17 1.20 1.24 1.34 1.41
1.45 1.52 1.54 1.48 1.52 1.59 1.65 1.75 1.69 1.65 1.76 1.83 1.96 2.08 2.08 2.05 2.08 2.01 2.11 2.32 2.50 2.53 2.20 1.81 1.70 1.60 1.60 1.44 1.58 1.40 1.34 1.44 1.32 1.22 1.15 1.09 1.05 1.06 1.08 1.09 1.05 1.05 1.08
1.35 1.37 1.40 1.42 1.41 1.50 1.73 1.99 1.91 1.87 1.90 1.95 2.01 2.16 2.24 2.40 2.40 2.26 2.25 2.23 2.30 2.44 2.22 1.86 1.74 1.68 1.55 1.38 1.35 1.25 1.16 1.15 1.12 1.22 1.15 1.04 0.93 0.89 0.94 0.96 0.97 0.96 0.93
1.22 1.14 1.19 1.26 1.25 1.36 1.62 1.94 2.09 2.12 2.18 2.14 2.20 2.38 2.42 2.44 2.39 2.28 2.31 2.28 2.24 2.40 2.29 1.97 1.87 1.76 1.64 1.46 1.37 1.31 1.13 1.07 1.10 1.32 1.25 1.08 0.96 0.91 0.88 0.84 0.81 0.82 0.86
1.27 1.25 1.26 1.26 1.40 1.50 1.55 1.73 1.92 2.02 2.08 2.07 2.21 2.25 2.23 2.32 2.26 2.24 2.14 2.11 2.12 2.30 2.41 2.17 2.08 2.06 1.89 1.69 1.59 1.44 1.28 1.26 1.07 1.10 1.13 1.05 0.99 0.91 0.85 0.81 0.81 0.80 0.78
1.34 1.38 1.39 1.43 1.54 1.57 1.55 1.64 1.80 1.93 2.00 2.02 2.09 2.16 2.23 2.23 2.27 2.35 2.24 2.21 2.31 2.43 2.49 2.40 2.29 2.35 2.24 2.01 1.82 1.61 1.43 1.32 1.20 0.99 1.04 1.05 1.01 0.93 0.85 0.78 0.76 0.76 0.78
1.40 1.48 1.56 1.55 1.53 1.47 1.43 1.65 1.78 1.80 1.97 2.02 2.01 1.97 2.05 2.23 2.31 2.34 2.16 2.23 2.36 2.34 2.32 2.33 2.29 2.39 2.37 2.21 1.90 1.65 1.55 1.50 1.37 1.18 1.09 0.97 0.98 0.96 0.94 0.93 0.90 0.87 0.81
1.58 1.68 1.71 1.72 1.64 1.43 1.63 1.73 1.75 1.82 1.91 1.95 1.95 1.85 1.77 1.78 1.87 1.99 1.99 1.97 2.02 2.09 2.16 2.18 2.21 2.28 2.29 2.18 1.99 1.81 1.70 1.59 1.49 1.42 1.44 1.36 1.22 1.22 1.10 0.98 1.02 0.97 0.91
1.75 1.78 1.74 1.74 1.71 1.75 1.78 1.59 1.53 1.47 1.53 1.60 1.60 1.57 1.37 1.29 1.56 1.65 1.81 1.78 1.67 1.67 1.71 1.87 1.98 1.99 2.14 2.18 2.15 1.94 1.88 1.77 1.60 1.57 1.60 1.57 1.48 1.35 1.15 1.09 1.19 1.04 0.98
1.97 1.93 1.84 1.84 1.90 1.91 1.93 1.64 1.52 1.38 1.39 1.39 1.38 1.34 1.34 1.35 1.43 1.56 1.60 1.57 1.52 1.47 1.47 1.49 1.59 1.79 1.98 2.16 2.17 2.08 2.05 1.93 1.71 1.59 1.60 1.59 1.48 1.40 1.23 1.16 1.19 1.06 0.98
2.31 2.21 2.15 2.18 2.21 2.31 2.30 1.97 1.82 1.59 1.51 1.44 1.46 1.51 1.52 1.40 1.45 1.42 1.40 1.39 1.37 1.43 1.46 1.45 1.45 1.63 1.81 1.94 2.11 2.09 2.02 1.92 1.72 1.61 1.57 1.52 1.45 1.49 1.40 1.23 1.09 1.02 0.86
2.62 2.60 2.61 2.64 2.58 2.56 2.51 2.15 2.01 1.80 1.78 1.72 1.73 1.63 1.55 1.38 1.32 1.26 1.25 1.31 1.26 1.28 1.42 1.43 1.40 1.48 1.61 1.75 1.94 1.93 1.86 1.88 1.71 1.57 1.43 1.44 1.42 1.48 1.48 1.26 1.06 0.92 0.82